Regional Weather Roundup
Issued by NWS

Home | Current Version | Previous Version | Graphics & Text | Print | Product List | Glossary On
Versions: 1 2 3 4 5 6 7 8 9 10 11 12 13 14 15 16 17 18 19 20 21 22 23 24 25 26 27 28 29 30 31 32 33 34 35 36 37 38 39 40 41 42 43 44 45 46 47 48 49 50
000
ASUS43 KDMX 201406
RWRIA

WEATHER ROUNDUP FOR IOWA
NATIONAL WEATHER SERVICE DES MOINES IA
900 AM CDT FRI APR 20 2018

NOTE: "FAIR" INDICATES FEW OR NO CLOUDS BELOW 12,000 FEET WITH NO
SIGNIFICANT WEATHER AND/OR OBSTRUCTIONS TO VISIBILITY.

* - THESE STATIONS ARE NOT NWS STATIONS...THUS NOT UNDER NWS
QUALITY CONTROL.  THEY ALSO DO NOT REPORT WEATHER SUCH
AS PRECIPITATION OR FOG.

IAZ001>003-012>014-020>022-031>034-043>046-201500-
   NORTHWEST IOWA

CITY           SKY/WX    TMP DP  RH WIND       PRES   REMARKS
CARROLL *      CLOUDY    36  30  80 SE6       30.48R WCI  31
CHEROKEE *     CLOUDY    36  28  72 CALM      30.46S
DENISON *      MOSUNNY   39  30  70 E8        30.46F WCI  34
LE MARS *      CLOUDY    39  28  65 SE9G15    30.44F WCI  33
ORANGE CITY *  MOSUNNY   37  28  70 SE5       30.44S WCI  34
SHELDON *      MOSUNNY   37  28  70 SE8       30.43S WCI  31
SIOUX CITY     CLOUDY    37  29  72 SE10      30.43F WCI  30
SPENCER        CLOUDY    31  24  75 E3        30.47R
STORM LAKE *   CLOUDY    34  27  75 SE12      30.45S WCI  25
$$

IAZ055>058-069>071-079>083-090>094-201500-
   SOUTHWEST IOWA

CITY           SKY/WX    TMP DP  RH WIND       PRES   REMARKS
ATLANTIC *       N/A     41  30  65 SE5       30.46S
AUDUBON *      CLOUDY    39  32  75 CALM      30.47S
CLARINDA *     PTSUNNY   45  30  57 S7        30.49R
COUNCIL BLFS * CLOUDY    41  30  65 SE8       30.44S
CRESTON *      CLOUDY    45  28  53 SE9       30.48S
HARLAN  *      CLOUDY    39  30  70 CALM      30.49S
LAMONI         MOSUNNY   45  28  51 SE9       30.47S
RED OAK *      MOSUNNY   46  30  53 SE6       30.46S
SHENANDOAH *   CLOUDY    46  32  57 SE9       30.46S
$$

IAZ047>049-059>061-072>074-084-201500-
   CENTRAL IOWA

CITY           SKY/WX    TMP DP  RH WIND       PRES   REMARKS
AMES           MOSUNNY   39  29  67 SE5       30.50R
ANKENY *       CLOUDY    43  28  56 SE7       30.51S
BOONE *        MOSUNNY   39  30  70 SE9       30.48S WCI  33
CHARITON *     CLOUDY    43  32  65 SE9       30.49R
DES MOINES     CLOUDY    42  27  55 SE9       30.49S
GRINNELL*      CLOUDY    42  30  63 SE8       30.52S
KNOXVILLE *    CLOUDY    41  28  60 SE7       30.49S
MARSHALLTOWN   CLOUDY    38  32  79 E5        30.50S WCI  34
NEWTON *       CLOUDY    43  30  61 SE6       30.51R
PELLA *        MOSUNNY   43  29  59 SE3       30.52R
PERRY *        FAIR      39  29  66 SE8       30.49S WCI  34
$$

IAZ004>006-015-016-023>025-035-036-201500-
   NORTH CENTRAL IOWA

CITY           SKY/WX    TMP DP  RH WIND       PRES   REMARKS
ALGONA *       MOSUNNY   36  23  60 SE7       30.49S WCI  30
CLARION *      CLOUDY    36  27  69 E8        30.49F WCI  29
ESTHERVILLE    CLOUDY    23  20  88 SE5       30.48R WCI  17
FORT DODGE *   CLOUDY    37  28  70 E5        30.49S WCI  33
MASON CITY     CLOUDY    28  22  78 CALM      30.52R
FOREST CITY *  FAIR     N/A N/A N/A SE3       30.50S
WEBSTER CITY * CLOUDY    37  30  75 SE8       30.47F WCI  31
IOWA FALLS *   FAIR      37  29  71 E3        30.51S
$$

IAZ007>011-017>019-026>030-037>042-050>054-066-201500-
   NORTHEAST IOWA

CITY           SKY/WX    TMP DP  RH WIND       PRES   REMARKS
CEDAR RAPIDS   FAIR      44  30  57 SE5       30.51R
CHARLES CITY * FAIR      32  27  80 E6        30.52S WCI  26
CLINTON *      FAIR      42  32  67 E6        30.54R
DECORAH *      FAIR      34  25  69 CALM      30.51R
DUBUQUE        FAIR      40  27  59 NE6       30.51S
MONTICELLO *   FAIR      39  32  75 CALM      30.53R
OELWEIN *      FAIR      39  36  87 E3        30.51S
WATERLOO       FAIR      36  30  79 E3        30.52R
$$

IAZ064-065-067-068-078-201500-
   EAST CENTRAL IOWA

CITY           SKY/WX    TMP DP  RH WIND       PRES   REMARKS
DAVENPORT      FAIR      44  28  53 E5        30.55R
IOWA CITY      FAIR      43  30  60 SE3       30.54R
MT. PLEASANT * SUNNY     46  30  53 SE6       30.52R
MUSCATINE *    FAIR      43  30  61 CALM      30.54R
QUAD CITIES    FAIR      44  31  60 E5        30.53R
$$

IAZ062-063-075>077-085>089-095>099-201500-
   SOUTHEAST IOWA

CITY           SKY/WX    TMP DP  RH WIND       PRES   REMARKS
BURLINGTON     SUNNY     45  29  53 E3        30.52R
FAIRFIELD *    SUNNY     46  28  49 SE7       30.51R
FORT MADISON * SUNNY     46  30  53 SE3       30.52S
KEOKUK *       SUNNY     46  30  53 SE5       30.52R
OSKALOOSA *    FAIR      44  29  56 SE10      30.51S
CENTERVILLE *    N/A     45  32  61 SE9       30.51R
OTTUMWA        CLOUDY    45  28  51 SE10      30.51R
WASHINGTON *   MIX PCPN  45  32  61 SE7       30.53R
$$

ABBREVIATIONS USED IN REMARKS
   TC - TEMPERATURES IN CELSIUS
  WCI - WIND CHILL INDEX
   HX - HEAT INDEX
  VSB - VISIBILITY
$$




USA.gov is the U.S. government's official web portal to all federal, state and local government web resources and services.